GW3791 Weather Reports


Display with metric or nautical units.
time (UTC)temp
F
wind
direction
speed
MPH
gust
MPH
rain 1hr
in
rain 24hr
in
rain mn
in
humidity
%
barometer
mb
20260504035606 50 134 0.0 4.0 0.00 0.00 0.00 50 1012.4
20260504035102 50 77 0.0 3.0 0.00 0.00 0.00 48 1012.4
20260504034600 49 121 1.0 3.0 0.00 0.00 0.00 49 1012.5
20260504034056 49 33 2.0 2.0 0.00 0.00 0.00 50 1012.5
20260504033554 49 102 0.0 3.0 0.00 0.00 0.00 49 1012.4
20260504033051 49 328 2.0 2.0 0.00 0.00 0.00 50 1012.5
20260504032548 49 76 0.0 2.0 0.00 0.00 0.00 50 1012.5
20260504032045 49 165 1.0 3.0 0.00 0.00 0.00 50 1012.5
20260504031542 49 312 0.0 5.0 0.00 0.00 0.00 49 1012.5
20260504031038 49 320 0.0 3.0 0.00 0.00 0.00 50 1012.6
20260504030536 49 69 1.0 2.0 0.00 0.00 0.00 50 1012.5
20260504030032 49 129 0.0 2.0 0.00 0.00 0.00 49 1012.5
20260504025529 49 174 0.0 2.0 0.00 0.00 0.00 50 1012.3
20260504025026 49 72 1.0 3.0 0.00 0.00 0.00 51 1012.4
20260504024523 48 71 2.0 5.0 0.00 0.00 0.00 50 1012.5
20260504024020 48 293 0.0 1.0 0.00 0.00 0.00 51 1012.7
20260504023516 48 38 0.0 2.0 0.00 0.00 0.00 52 1012.6
20260504023012 48 106 0.0 2.0 0.00 0.00 0.00 51 1012.6
20260504022508 48 44 0.0 2.0 0.00 0.00 0.00 50 1012.6
20260504022005 48 135 2.0 2.0 0.00 0.00 0.00 52 1012.6
20260504021502 49 63 0.0 2.0 0.00 0.00 0.00 49 1012.7
20260504020959 49 58 2.0 3.0 0.00 0.00 0.00 49 1012.5
20260504020456 49 45 1.0 2.0 0.00 0.00 0.00 49 1012.7
20260504015953 49 89 0.0 2.0 0.00 0.00 0.00 49 1012.4
20260504015449 49 111 2.0 3.0 0.00 0.00 0.00 50 1012.6
20260504014944 49 60 0.0 2.0 0.00 0.00 0.00 47 1012.5
20260504014441 49 53 0.0 1.0 0.00 0.00 0.00 48 1012.5
20260504013938 49 25 1.0 1.0 0.00 0.00 0.00 49 1012.4
20260504013437 49 40 0.0 2.0 0.00 0.00 0.00 48 1012.3
20260504012932 49 231 0.0 4.0 0.00 0.00 0.00 48 1012.4
20260504012430 49 135 0.0 2.0 0.00 0.00 0.00 49 1012.5
20260504011928 49 39 1.0 2.0 0.00 0.00 0.00 49 1012.3
20260504011424 49 66 0.0 3.0 0.00 0.00 0.00 49 1012.2
20260504010920 50 51 0.0 2.0 0.00 0.00 0.00 48 1012.2
20260504010416 50 113 0.0 3.0 0.00 0.00 0.00 48 1012.1
20260504005913 50 91 0.0 3.0 0.00 0.00 0.00 48 1012.1
20260504005409 50 115 1.0 3.0 0.00 0.00 0.00 45 1012.0
20260504004907 50 93 2.0 3.0 0.00 0.00 0.00 44 1012.1
20260504004405 50 116 1.0 3.0 0.00 0.00 0.00 44 1012.0
20260504003901 50 114 1.0 2.0 0.00 0.00 0.00 44 1012.1
20260504003358 50 118 1.0 3.0 0.00 0.00 0.00 45 1011.6
20260504002854 51 130 1.0 3.0 0.00 0.00 0.00 45 1011.7
20260504002351 51 118 1.0 2.0 0.00 0.00 0.00 45 1011.4
20260504001849 51 119 1.0 3.0 0.00 0.00 0.00 45 1011.7
20260504001346 52 119 0.0 2.0 0.00 0.00 0.00 45 1011.6
20260504000842 52 186 0.0 1.0 0.00 0.00 0.00 42 1011.5
20260504000340 52 147 0.0 2.0 0.00 0.00 0.00 40 1011.4
20260503235837 53 144 0.0 0.0 0.00 0.00 0.00 40 1011.5
20260503235335 53 129 0.0 3.0 0.00 0.00 0.00 39 1011.3
20260503234832 53 75 1.0 2.0 0.00 0.00 0.00 40 1011.3
20260503234330 54 130 0.0 2.0 0.00 0.00 0.00 38 1011.2
20260503233827 54 79 0.0 2.0 0.00 0.00 0.00 38 1011.2
20260503233323 55 237 0.0 2.0 0.00 0.00 0.00 39 1011.1
20260503232820 55 233 0.0 5.0 0.00 0.00 0.00 38 1011.0
20260503232317 55 274 5.0 5.0 0.00 0.00 0.00 37 1011.1
20260503231815 56 241 2.0 5.0 0.00 0.00 0.00 36 1011.0
20260503231312 56 131 0.0 4.0 0.00 0.00 0.00 36 1010.9
20260503230808 56 294 1.0 6.0 0.00 0.00 0.00 38 1010.9
20260503230305 56 324 2.0 7.0 0.00 0.00 0.00 35 1011.1
20260503225802 57 268 5.0 5.0 0.00 0.00 0.00 36 1010.6
20260503225258 57 273 3.0 9.0 0.00 0.00 0.00 34 1010.7
20260503224755 57 275 2.0 5.0 0.00 0.00 0.00 35 1010.9
20260503224252 56 292 3.0 7.0 0.00 0.00 0.00 37 1010.9
20260503223750 56 141 5.0 7.0 0.00 0.00 0.00 35 1010.5
20260503223247 56 254 3.0 6.0 0.00 0.00 0.00 36 1010.7
20260503222743 56 326 5.0 7.0 0.00 0.00 0.00 35 1010.6
20260503222241 56 343 3.0 4.0 0.00 0.00 0.00 34 1010.6
20260503221740 56 171 3.0 5.0 0.00 0.00 0.00 32 1010.6
20260503221237 57 314 5.0 5.0 0.00 0.00 0.00 32 1010.5
20260503220733 56 289 2.0 8.0 0.00 0.00 0.00 33 1010.6
20260503220230 56 182 2.0 9.0 0.00 0.00 0.00 34 1010.6
20260503215727 57 255 3.0 11.0 0.00 0.00 0.00 31 1010.7
20260503215224 58 304 6.0 12.0 0.00 0.00 0.00 31 1010.5
20260503214723 58 267 4.0 6.0 0.00 0.00 0.00 31 1010.4
20260503214219 57 316 4.0 7.0 0.00 0.00 0.00 33 1010.5
20260503213717 58 307 3.0 6.0 0.00 0.00 0.00 31 1010.6
20260503213214 57 306 3.0 7.0 0.00 0.00 0.00 32 1010.6
20260503212711 58 212 3.0 8.0 0.00 0.00 0.00 31 1010.5
20260503212209 58 234 3.0 8.0 0.00 0.00 0.00 30 1010.5
20260503211706 58 342 2.0 7.0 0.00 0.00 0.00 32 1010.6
20260503211201 58 203 2.0 7.0 0.00 0.00 0.00 30 1010.5
20260503210657 58 313 4.0 10.0 0.00 0.00 0.00 31 1010.7
20260503210154 58 312 4.0 10.0 0.00 0.00 0.00 31 1010.4
20260503205649 59 191 5.0 12.0 0.00 0.00 0.00 30 1010.5
20260503205146 58 293 7.0 9.0 0.00 0.00 0.00 32 1010.5
20260503204643 59 190 3.0 7.0 0.00 0.00 0.00 30 1010.5
20260503204140 58 297 6.0 9.0 0.00 0.00 0.00 31 1010.5
20260503203637 58 208 2.0 17.0 0.00 0.00 0.00 30 1010.4
20260503203135 59 261 4.0 11.0 0.00 0.00 0.00 29 1010.9
20260503202632 58 38 4.0 11.0 0.00 0.00 0.00 30 1010.7
20260503202130 58 323 4.0 17.0 0.00 0.00 0.00 30 1010.9
20260503201628 59 302 3.0 8.0 0.00 0.00 0.00 28 1010.9
20260503201125 59 317 5.0 10.0 0.00 0.00 0.00 29 1010.9
20260503200621 58 286 8.0 12.0 0.00 0.00 0.00 29 1011.0
20260503200118 57 243 5.0 11.0 0.00 0.00 0.00 32 1010.6
20260503195615 57 307 4.0 10.0 0.00 0.00 0.00 33 1010.9
20260503195112 57 300 7.0 9.0 0.00 0.00 0.00 31 1011.2
20260503194610 58 195 3.0 6.0 0.00 0.00 0.00 34 1011.2
20260503194109 55 310 4.0 5.0 0.00 0.00 0.00 35 1011.2
20260503193607 55 292 4.0 13.0 0.00 0.00 0.00 32 1011.3
20260503193102 54 325 7.0 18.0 0.00 0.00 0.00 33 1011.0
20260503192558 56 298 4.0 7.0 0.00 0.00 0.00 32 1011.1
20260503192054 56 304 4.0 12.0 0.00 0.00 0.00 33 1011.3
20260503191551 56 162 4.0 10.0 0.00 0.00 0.00 33 1011.1
20260503191048 54 305 5.0 9.0 0.00 0.00 0.00 35 1011.2
20260503190545 55 275 5.0 12.0 0.00 0.00 0.00 33 1011.2
20260503190042 52 297 2.0 11.0 0.00 0.00 0.00 35 1011.3
20260503185538 54 324 7.0 12.0 0.00 0.00 0.00 35 1011.4
20260503185039 53 282 3.0 10.0 0.00 0.00 0.00 35 1011.6
20260503184535 55 283 8.0 9.0 0.00 0.00 0.00 36 1011.7
20260503184032 55 259 4.0 12.0 0.00 0.00 0.00 33 1011.5
20260503183528 55 158 3.0 10.0 0.00 0.00 0.00 37 1011.5
20260503183025 53 20 2.0 6.0 0.00 0.00 0.00 36 1012.0
20260503182524 55 269 4.0 7.0 0.00 0.00 0.00 35 1011.5
20260503182021 53 311 6.0 11.0 0.00 0.00 0.00 39 1011.6
20260503181518 54 212 4.0 8.0 0.00 0.00 0.00 35 1011.7
20260503181014 53 226 3.0 10.0 0.00 0.00 0.00 35 1011.6
20260503180512 52 272 6.0 9.0 0.00 0.00 0.00 36 1011.7
20260503180009 51 297 4.0 16.0 0.00 0.00 0.00 37 1011.5
20260503175507 53 280 7.0 11.0 0.00 0.00 0.00 36 1011.8
20260503175003 53 256 3.0 12.0 0.00 0.00 0.00 38 1011.9
20260503174501 53 67 2.0 7.0 0.00 0.00 0.00 36 1011.9
20260503173956 54 288 5.0 9.0 0.00 0.00 0.00 37 1012.0
20260503173452 52 247 3.0 14.0 0.00 0.00 0.00 40 1012.0
20260503172949 52 260 4.0 10.0 0.00 0.00 0.00 39 1011.9
20260503172446 53 269 4.0 12.0 0.00 0.00 0.00 37 1011.9
20260503171943 52 305 4.0 10.0 0.00 0.00 0.00 39 1012.1
20260503171439 54 1 4.0 7.0 0.00 0.00 0.00 40 1012.0
20260503170937 52 204 3.0 9.0 0.00 0.00 0.00 40 1011.9
20260503170433 50 336 5.0 9.0 0.00 0.00 0.00 41 1012.2
20260503150825 46 263 3.0 5.0 0.00 0.00 0.00 52 1012.8
20260503150321 46 280 3.0 5.0 0.00 0.00 0.00 51 1012.8
20260503140246 44 294 5.0 9.0 0.00 0.00 0.00 57 1012.6
20260503131215 45 278 4.0 7.0 0.00 0.00 0.00 58 1012.7
20260503130713 44 244 5.0 13.0 0.00 0.00 0.00 57 1012.7
20260503130210 45 300 7.0 9.0 0.00 0.00 0.00 58 1012.4
20260503120136 42 299 4.0 6.0 0.00 0.00 0.00 64 1012.3
20260503110557 41 281 3.0 4.0 0.00 0.00 0.00 69 1012.1
20260503090438 40 337 5.0 7.0 0.00 0.00 0.00 66 1011.1
20260503081358 41 43 2.0 6.0 0.00 0.00 0.00 63 1011.3
20260503080854 41 113 3.0 8.0 0.00 0.00 0.00 62 1011.3
20260503080347 41 109 4.0 7.0 0.00 0.00 0.00 61 1011.1
20260503072823 42 11 4.0 6.0 0.00 0.00 0.00 59 1011.0
20260503072320 42 320 6.0 13.0 0.00 0.00 0.00 59 1010.7
20260503071816 42 49 4.0 6.0 0.00 0.00 0.00 60 1010.7
20260503071313 42 2 3.0 6.0 0.00 0.00 0.00 57 1011.0
20260503070809 43 96 2.0 5.0 0.00 0.00 0.00 58 1011.0
20260503070302 43 34 2.0 7.0 0.00 0.00 0.00 56 1010.9
20260503060221 43 298 2.0 4.0 0.00 0.00 0.00 59 1011.1
20260503054708 44 59 2.0 10.0 0.00 0.00 0.00 58 1011.4
20260503054205 44 279 5.0 6.0 0.00 0.00 0.00 58 1011.3
20260503053703 44 294 0.0 3.0 0.00 0.00 0.00 58 1011.1
20260503053201 44 307 1.0 4.0 0.00 0.00 0.00 59 1011.2
20260503052657 44 313 4.0 4.0 0.00 0.00 0.00 58 1011.4
20260503052154 44 317 4.0 5.0 0.00 0.00 0.00 56 1011.3
20260503051649 44 341 3.0 8.0 0.00 0.00 0.00 56 1011.5
20260503051147 45 296 3.0 4.0 0.00 0.00 0.00 55 1011.2
20260503050644 45 211 1.0 5.0 0.00 0.00 0.00 56 1011.3
20260503050140 45 329 4.0 6.0 0.00 0.00 0.00 55 1011.5
20260503045638 45 334 3.0 7.0 0.00 0.00 0.00 54 1011.6
20260503045135 45 273 3.0 5.0 0.00 0.00 0.00 54 1011.7
20260503044631 45 69 2.0 7.0 0.00 0.00 0.00 54 1011.7
20260503044129 45 283 3.0 7.0 0.00 0.00 0.00 54 1011.8
20260503043626 45 320 3.0 5.0 0.00 0.00 0.00 54 1011.6
20260503043122 45 313 3.0 4.0 0.00 0.00 0.00 54 1011.8
20260503042619 45 351 2.0 6.0 0.00 0.00 0.00 53 1011.8
20260503042115 45 323 3.0 5.0 0.00 0.00 0.00 54 1012.1
20260503041612 45 286 2.0 4.0 0.00 0.00 0.00 54 1012.1
20260503041110 46 290 2.0 5.0 0.00 0.00 0.00 53 1012.1
20260503040606 46 307 1.0 3.0 0.00 0.00 0.00 53 1011.9
20260503040104 46 315 3.0 3.0 0.00 0.07 0.07 54 1011.8